EZY8LW EGAA-EGPH

Flight info

Callsign EZY8LW
Flight time 0h 29m
Altitude 17000
Route BLACA P600 TUNSO
Aircraft A321/M-SDE3FGHIRWY/LB1

Departure

Time 2026-05-06 16:36
Airport Belfast International Airport (EGAA)

Arrival

Time 2026-05-06 17:05
Airport Edinburgh Airport (EGPH)
Time Latitude Longitude Altitude Speed Heading
2026-05-06 16:21 54.66071 -6.21510 275 ft 0 kts 335°
2026-05-06 16:21 54.66071 -6.21511 275 ft 0 kts 335°
2026-05-06 16:25 54.66071 -6.21510 275 ft 0 kts 335°
2026-05-06 16:28 54.66058 -6.21500 267 ft 2 kts 335°
2026-05-06 16:29 54.66043 -6.21488 275 ft 2 kts 336°
2026-05-06 16:29 54.66028 -6.21477 275 ft 2 kts 337°
2026-05-06 16:29 54.66013 -6.21466 274 ft 2 kts 338°
2026-05-06 16:29 54.65998 -6.21456 272 ft 2 kts 342°
2026-05-06 16:30 54.65982 -6.21448 277 ft 2 kts 354°
2026-05-06 16:30 54.65971 -6.21447 272 ft 2 kts 32°
2026-05-06 16:30 54.65964 -6.21459 276 ft 0 kts 63°
2026-05-06 16:32 54.65964 -6.21458 272 ft 1 kts 63°
2026-05-06 16:32 54.65976 -6.21415 272 ft 7 kts 64°
2026-05-06 16:32 54.66007 -6.21303 272 ft 13 kts 64°
2026-05-06 16:32 54.66048 -6.21155 272 ft 15 kts 65°
2026-05-06 16:33 54.66096 -6.20975 272 ft 20 kts 65°
2026-05-06 16:33 54.66153 -6.20762 272 ft 18 kts 65°
2026-05-06 16:33 54.66211 -6.20548 272 ft 24 kts 65°
2026-05-06 16:34 54.66341 -6.20064 272 ft 16 kts 64°
2026-05-06 16:34 54.66380 -6.19922 273 ft 11 kts 64°
2026-05-06 16:34 54.66389 -6.19778 272 ft 14 kts 107°
2026-05-06 16:34 54.66327 -6.19680 276 ft 11 kts 152°
2026-05-06 16:35 54.66273 -6.19646 274 ft 4 kts 195°
2026-05-06 16:35 54.66237 -6.19774 272 ft 30 kts 245°
2026-05-06 16:35 54.66039 -6.20505 272 ft 101 kts 245°
2026-05-06 16:35 54.65661 -6.21907 276 ft 154 kts 245°
2026-05-06 16:36 54.65171 -6.23742 546 ft 173 kts 242°
2026-05-06 16:36 54.64660 -6.25616 1241 ft 173 kts 241°
2026-05-06 16:36 54.64143 -6.27512 1884 ft 178 kts 240°
2026-05-06 16:36 54.63719 -6.29606 2233 ft 198 kts 263°
2026-05-06 16:37 54.64051 -6.32054 2436 ft 227 kts 299°
2026-05-06 16:37 54.65232 -6.34006 2735 ft 254 kts 333°
2026-05-06 16:37 54.66989 -6.34732 3323 ft 266 kts
2026-05-06 16:37 54.68762 -6.33874 4194 ft 268 kts 33°
2026-05-06 16:38 54.70092 -6.31667 5155 ft 267 kts 61°
2026-05-06 16:38 54.70902 -6.28782 6122 ft 268 kts 75°
2026-05-06 16:38 54.71408 -6.25671 7023 ft 271 kts 76°
2026-05-06 16:38 54.71917 -6.22492 7838 ft 278 kts 75°
2026-05-06 16:39 54.72439 -6.19227 8624 ft 285 kts 75°
2026-05-06 16:39 54.72974 -6.15883 9433 ft 292 kts 74°
2026-05-06 16:39 54.73510 -6.12518 10220 ft 298 kts 73°
2026-05-06 16:39 54.74081 -6.08930 10522 ft 321 kts 73°
2026-05-06 16:40 54.74694 -6.05063 10741 ft 345 kts 73°
2026-05-06 16:40 54.75345 -6.00929 10908 ft 368 kts 73°
2026-05-06 16:40 54.76036 -5.96518 11055 ft 390 kts 74°
2026-05-06 16:40 54.76758 -5.91892 11354 ft 404 kts 74°
2026-05-06 16:41 54.77497 -5.87155 11929 ft 410 kts 74°
2026-05-06 16:41 54.78243 -5.82362 12541 ft 414 kts 74°
2026-05-06 16:41 54.78995 -5.77520 13146 ft 418 kts 74°
2026-05-06 16:41 54.79752 -5.72631 13740 ft 423 kts 74°
2026-05-06 16:42 54.80504 -5.67747 14268 ft 427 kts 74°
2026-05-06 16:42 54.81270 -5.62753 14785 ft 431 kts 74°
2026-05-06 16:42 54.82039 -5.57710 15296 ft 435 kts 74°
2026-05-06 16:42 54.82811 -5.52623 15814 ft 438 kts 74°
2026-05-06 16:43 54.83589 -5.47480 16326 ft 442 kts 74°
2026-05-06 16:43 54.84374 -5.42296 16839 ft 446 kts 74°
2026-05-06 16:43 54.85163 -5.37079 17036 ft 448 kts 74°
2026-05-06 16:43 54.85952 -5.31847 17082 ft 448 kts 74°
2026-05-06 16:44 54.86807 -5.26654 17075 ft 447 kts 69°
2026-05-06 16:44 54.88104 -5.21772 17080 ft 445 kts 58°
2026-05-06 16:44 54.89840 -5.17441 17094 ft 442 kts 48°
2026-05-06 16:44 54.92004 -5.13671 17073 ft 439 kts 37°
2026-05-06 16:45 54.94494 -5.10639 17081 ft 436 kts 27°
2026-05-06 16:45 54.97192 -5.08252 17080 ft 435 kts 23°
2026-05-06 16:45 54.99906 -5.05919 17080 ft 435 kts 23°
2026-05-06 16:45 55.02615 -5.03579 17079 ft 435 kts 24°
2026-05-06 16:46 55.05325 -5.01219 17096 ft 435 kts 24°
2026-05-06 16:46 55.07919 -4.98474 17087 ft 439 kts 34°
2026-05-06 16:46 55.10214 -4.94947 17088 ft 442 kts 44°
2026-05-06 16:46 55.12123 -4.90820 17093 ft 444 kts 54°
2026-05-06 16:47 55.13630 -4.86094 17100 ft 447 kts 64°
2026-05-06 16:47 55.14867 -4.81117 17101 ft 447 kts 65°
2026-05-06 16:47 55.16103 -4.76132 17102 ft 447 kts 65°
2026-05-06 16:47 55.17339 -4.71145 17100 ft 447 kts 65°
2026-05-06 16:48 55.18573 -4.66152 17109 ft 447 kts 65°
2026-05-06 16:48 55.19805 -4.61156 17105 ft 447 kts 65°
2026-05-06 16:48 55.21034 -4.56159 17110 ft 447 kts 65°
2026-05-06 16:48 55.22263 -4.51154 17102 ft 447 kts 65°
2026-05-06 16:49 55.23474 -4.46221 17107 ft 447 kts 65°
2026-05-06 16:49 55.24699 -4.41217 17109 ft 447 kts 65°
2026-05-06 16:49 55.25921 -4.36210 17108 ft 447 kts 65°
2026-05-06 16:49 55.27130 -4.31233 16628 ft 440 kts 65°
2026-05-06 16:50 55.28321 -4.26319 15895 ft 436 kts 65°
2026-05-06 16:50 55.29499 -4.21453 15221 ft 431 kts 66°
2026-05-06 16:50 55.30659 -4.16638 14556 ft 426 kts 66°
2026-05-06 16:50 55.31419 -4.13481 14134 ft 423 kts 66°
2026-05-06 16:51 55.32937 -4.07162 13275 ft 417 kts 66°
2026-05-06 16:51 55.34037 -4.02573 12606 ft 411 kts 66°
2026-05-06 16:51 55.35139 -3.97975 11919 ft 406 kts 66°
2026-05-06 16:51 55.36224 -3.93434 11392 ft 398 kts 66°
2026-05-06 16:52 55.37266 -3.89051 11261 ft 380 kts 66°
2026-05-06 16:52 55.38261 -3.84860 11126 ft 363 kts 66°
2026-05-06 16:52 55.39213 -3.80850 11012 ft 348 kts 65°
2026-05-06 16:52 55.40128 -3.76997 10882 ft 334 kts 65°
2026-05-06 16:53 55.41003 -3.73300 10756 ft 321 kts 65°
2026-05-06 16:53 55.41844 -3.69737 10624 ft 309 kts 65°
2026-05-06 16:53 55.42654 -3.66304 10506 ft 298 kts 65°
2026-05-06 16:53 55.43429 -3.63019 10279 ft 292 kts 65°
2026-05-06 16:54 55.44203 -3.59742 9936 ft 289 kts 65°
2026-05-06 16:54 55.45055 -3.56571 9543 ft 284 kts 53°
2026-05-06 16:54 55.46477 -3.54285 9213 ft 274 kts 25°
2026-05-06 16:54 55.48274 -3.53440 8815 ft 268 kts 359°
2026-05-06 16:55 55.50094 -3.54027 8345 ft 267 kts 341°
2026-05-06 16:55 55.51861 -3.55086 7897 ft 268 kts 340°
2026-05-06 16:55 55.53610 -3.56195 7523 ft 266 kts 340°
2026-05-06 16:55 55.55345 -3.57307 7177 ft 264 kts 339°
2026-05-06 16:56 55.57065 -3.58418 7089 ft 263 kts 339°
2026-05-06 16:56 55.58765 -3.59524 7025 ft 263 kts 339°
2026-05-06 16:56 55.60481 -3.60644 6615 ft 264 kts 340°
2026-05-06 16:56 55.62201 -3.61778 6247 ft 263 kts 339°
2026-05-06 16:57 55.63906 -3.62912 6067 ft 262 kts 340°
2026-05-06 16:57 55.65614 -3.64058 6078 ft 263 kts 339°
2026-05-06 16:57 55.67331 -3.65208 6080 ft 264 kts 339°
2026-05-06 16:57 55.69051 -3.66360 6083 ft 265 kts 339°
2026-05-06 16:58 55.70773 -3.67515 6082 ft 264 kts 340°
2026-05-06 16:58 55.72489 -3.68667 5953 ft 262 kts 339°
2026-05-06 16:58 55.74194 -3.69812 5574 ft 262 kts 339°
2026-05-06 16:58 55.75901 -3.70952 5174 ft 262 kts 339°
2026-05-06 16:59 55.77608 -3.72103 4786 ft 263 kts 340°
2026-05-06 16:59 55.79338 -3.72806 4530 ft 255 kts 360°
2026-05-06 16:59 55.81052 -3.72486 4404 ft 241 kts 17°
2026-05-06 16:59 55.82545 -3.71384 4292 ft 226 kts 33°
2026-05-06 17:00 55.83726 -3.69739 4186 ft 204 kts 47°
2026-05-06 17:00 55.84554 -3.67835 4005 ft 189 kts 62°
2026-05-06 17:00 55.85225 -3.65876 3745 ft 184 kts 60°
2026-05-06 17:00 55.85887 -3.63954 3515 ft 181 kts 60°
2026-05-06 17:01 55.86541 -3.62048 3260 ft 179 kts 60°
2026-05-06 17:01 55.87190 -3.60155 3000 ft 178 kts 61°
2026-05-06 17:01 55.87835 -3.58272 2759 ft 178 kts 61°
2026-05-06 17:01 55.88464 -3.56433 2519 ft 174 kts 61°
2026-05-06 17:02 55.89086 -3.54615 2266 ft 171 kts 60°
2026-05-06 17:02 55.89696 -3.52827 2036 ft 165 kts 60°
2026-05-06 17:02 55.90276 -3.51130 1816 ft 158 kts 60°
2026-05-06 17:02 55.90837 -3.49485 1601 ft 150 kts 60°
2026-05-06 17:03 55.91357 -3.47963 1393 ft 139 kts 62°
2026-05-06 17:03 55.91851 -3.46506 1188 ft 135 kts 62°
2026-05-06 17:03 55.92341 -3.45080 1016 ft 135 kts 59°
2026-05-06 17:03 55.92826 -3.43644 814 ft 135 kts 60°
2026-05-06 17:04 55.93313 -3.42203 637 ft 136 kts 59°
2026-05-06 17:04 55.93803 -3.40778 427 ft 135 kts 59°
2026-05-06 17:04 55.94278 -3.39387 254 ft 131 kts 59°
2026-05-06 17:04 55.94746 -3.38005 111 ft 124 kts 60°
2026-05-06 17:05 55.95094 -3.36974 108 ft 56 kts 59°
2026-05-06 17:05 55.95231 -3.36571 107 ft 26 kts 58°
2026-05-06 17:05 55.95240 -3.36405 106 ft 7 kts 136°
2026-05-06 17:05 55.95209 -3.36370 106 ft 5 kts 149°
2026-05-06 17:06 55.95170 -3.36327 107 ft 9 kts 149°
2026-05-06 17:06 55.95156 -3.36225 107 ft 8 kts 70°
2026-05-06 17:06 55.95184 -3.36138 107 ft 10 kts 58°
2026-05-06 17:06 55.95211 -3.36005 107 ft 11 kts 115°
2026-05-06 17:07 55.95155 -3.35934 106 ft 10 kts 151°
2026-05-06 17:07 55.95118 -3.35869 107 ft 2 kts 118°
2026-05-06 17:07 55.95117 -3.35865 107 ft 0 kts 118°
2026-05-06 17:08 55.95113 -3.35852 107 ft 5 kts 118°
2026-05-06 17:08 55.95066 -3.35813 107 ft 8 kts 219°
2026-05-06 17:09 55.95056 -3.35904 107 ft 9 kts 262°
2026-05-06 17:09 55.95034 -3.36012 107 ft 8 kts 248°
2026-05-06 17:09 55.95023 -3.36061 107 ft 1 kts 249°
2026-05-06 17:09 55.95022 -3.36067 107 ft 0 kts 249°